Retour au catalogue

THORAD AGENA D DEB

ActifLEO
NORAD 5430·DEBRIS·🇺🇸 United States

Lancé Sep 30, 1969 depuis Vandenberg Space Force Base

Loading…

Prochains Passages (prochaines 24 heures)

TLE

FraisSource: Space-Track

Époque: Sep 14, 2026, 04:56 UTC

1 05430U 69082HW  26257.20581439  .00000575  00000-0  28609-3 0  9996
2 05430  70.1066 184.1647 0057653 193.0355 166.9278 14.20936542925884

Suivez THORAD AGENA D DEB en temps réel avec AllMySat

Download on the App Store